Location: Observatoire Alphonse-Tardif � St-N�r�e
(46.7267°N, 70.7033°W)
Time: 01:20:22
(UTC-04:00)

OTV 5 (USA 277) - Visible Passes

Search period start: 22 June 2018 00:00
Search period end: 02 July 2018 00:00
Orbit: 313 x 320 km, 54.5° (Epoch: 21 June)

Date Brightness Start Highest point End Pass type
(mag) Time Alt. Az. Time Alt. Az. Time Alt. Az.
22 Jun ? 01:19:25 10° NW 01:21:51 53° N 01:21:51 53° N visible
22 Jun ? 22:25:16 10° NW 22:27:02 16° N 22:28:49 10° NE visible
22 Jun ? 23:59:44 10° NW 00:02:02 24° NNE 00:03:50 13° ENE visible
23 Jun ? 01:33:50 10° WNW 01:34:38 17° WNW 01:34:38 17° WNW visible
23 Jun ? 22:39:56 10° NW 22:41:46 16° N 22:43:37 10° NE visible
24 Jun ? 00:14:02 10° NW 00:16:37 39° NNE 00:16:52 38° NE visible
24 Jun ? 21:19:36 10° NW 21:21:27 16° N 21:23:17 10° NE visible
24 Jun ? 22:54:21 10° NW 22:56:28 20° NNE 22:58:35 10° ENE visible
25 Jun ? 00:28:23 10° NW 00:30:05 34° NW 00:30:05 34° NW visible
25 Jun ? 21:34:24 10° NW 21:36:11 16° N 21:37:56 10° NE visible
25 Jun ? 23:08:39 10° NW 23:11:06 29° NNE 23:12:34 18° ENE visible
26 Jun ? 00:42:55 10° WNW 00:43:24 14° WNW 00:43:24 14° WNW visible
26 Jun ? 21:48:56 10° NW 21:50:54 18° N 21:52:51 10° ENE visible
26 Jun ? 23:22:58 10° NW 23:25:38 56° NNE 23:25:57 51° ENE visible
27 Jun ? 22:03:17 10° NW 22:05:34 23° NNE 22:07:50 10° ENE visible
27 Jun ? 23:37:23 10° WNW 23:39:24 42° W 23:39:24 42° W visible
28 Jun ? 22:17:34 10° NW 22:20:09 38° NNE 22:22:03 15° E visible
28 Jun ? 23:52:05 10° W 23:52:54 15° W 23:52:54 15° W visible
29 Jun ? 22:31:55 10° NW 22:34:38 85° NNE 22:35:36 35° ESE visible
30 Jun ? 22:46:27 10° WNW 22:48:59 37° SW 22:49:12 36° SSW visible
01 Jul ? 21:26:30 10° NW 21:29:10 54° NNE 21:31:49 10° ESE visible
01 Jul ? 23:01:28 10° W 23:02:51 15° WSW 23:02:51 15° WSW visible
